Location: Hackbridge
(51.3833°N, 0.1500°W)
Time: 11:06:24
(UTC+00:00)

STARLINK-49 - Pass Details

Date: 13 October 2019
Orbit: 548 x 551 km, 53.0° (Epoch: 14 November)

Event Time Altitude Azimuth Distance (km) Brightness Sun altitude
Rises 18:36:07 0° 226° (SW) 2,707 7.8 -13.8°
Reaches altitude 10° 18:38:24 10° 219° (SW) 1,817 6.7 -14.2°
Maximum altitude 18:42:19 43° 148° (SSE) 784 4.1 -14.8°
Enters shadow 18:44:00 28° 96° (E) 1,057 4.4 -15.0°
